Skip Navigation Links
NOAA logo - Click to go to the NOAA homepage
NOAA's National Weather Service
Alaska Aviation Weather Unit
  NWS logo - Click to go to the NWS homepage
Left Navbar Graphic     21 AKDT = 05 GMT

   
NOAA is celebrating 200 years of science, service, and stewardship. Visit the NOAA 200th celebration Web site to learn more.
USA.gov is the U.S. Government's official Web portal to all Federal, state and local government Web resources and services.
Facebook
NWS on Facebook

Important Change Regarding the AAWU Web Presence

 

Over the last several months, the AAWU has been working to navigate its webpages to a nationally supported server. Security, as well as other needs, have necessitated the change.  In the process, we have made an effort to enhance the functionality of our website, as well as some of our products. As of June 27, 2017, aawu.arh.noaa.gov will be discontinued. The new AAWU web address is weather.gov/aawu. It is now live and will run in-parallel with the old site until it is discontinued. Please send any feedback or questions regarding the new webpages to nws.ar.aawu.webauthors@noaa.gov.  Thank you for your patience during this time of transition.
AAWU Home :: Display TAF Add Bookmark
TAF PATA 252334Z 2600/2624 VRB04KT P6SM VCSH BKN060 BKN160
     FM260400 03004KT P6SM SCT070 SCT160
     FM262000 12006KT P6SM FEW070=
METAR PATA 252352Z VRB04KT 10SM BKN060 BKN160 23/09 A2989 RMK AO2 SLP121
     T02280089 10233 20167 56020=

METAR PATA 260052Z VRB04KT 10SM BKN060 BKN160 23/09 A2987 RMK AO2 SLP115
     T02330094=

PATA 260152Z 24005KT 10SM BKN060 BKN160 23/09 A2985 RMK AO2 SLP108
     T02280089=

METAR PATA 260252Z VRB03KT 10SM BKN075 BKN170 23/09 A2983 RMK AO2 SLP103
     T02330089 56018=

METAR PATA 260352Z VRB03KT 10SM BKN080 BKN180 22/07 A2982 RMK AO2 SLP099
     T02220072=

PATA 260452Z 00000KT 10SM SCT080 BKN180 21/08 A2981 RMK AO2 SLP096
     T02110083=


NOAA's National Weather Service
Alaska Aviation Weather Unit
6930 Sand Lake Road
Anchorage, AK 99502-1845
Disclaimer
Credits
Glossary
Privacy Policy
About Us
Career Opportunities
Contact AAWU Internet Services Site last modified: April, 17th 2012